• In Czech Republic
  • List of Countries
  • For 7 days
  • Water Temperature
  • Satellite Maps
  • Weather Map
  • Weather Widgets
  • user-avatar
    Login

    Hourly Weather Sharan

    Today, 25 February, Sunday

    Time Temperature Precipitation Wind Pressure Humidity
    00:00 +4°C° 0 mm 2 mps 585 mmHg 74%
    01:00 +4°C° 0 mm 2 mps 585 mmHg 76%
    02:00 +4°C° 0 mm 1 mps 586 mmHg 78%
    03:00 +4°C° 0 mm 1 mps 585 mmHg 79%
    04:00 +3°C° 0 mm 1 mps 585 mmHg 80%
    05:00 +3°C° 0 mm 1 mps 585 mmHg 78%
    06:00 +4°C° 0 mm 1 mps 586 mmHg 76%
    07:00 +4°C° 0 mm 1 mps 586 mmHg 73%
    08:00 +4°C° 0 mm 1 mps 587 mmHg 71%
    09:00 +6°C° 0 mm 1 mps 588 mmHg 64%
    10:00 +7°C° 0 mm 1 mps 588 mmHg 57%
    11:00 +9°C° 0 mm 1 mps 589 mmHg 50%
    12:00 +10°C° 0 mm 1 mps 589 mmHg 46%
    13:00 +10°C° 0 mm 2 mps 589 mmHg 42%
    14:00 +11°C° 0 mm 3 mps 590 mmHg 38%
    15:00 +11°C° 0 mm 3 mps 589 mmHg 38%
    16:00 +12°C° 0 mm 3 mps 589 mmHg 38%
    17:00 +12°C° 0 mm 3 mps 589 mmHg 38%
    18:00 +11°C° 0 mm 3 mps 589 mmHg 42%
    19:00 +10°C° 0 mm 3 mps 589 mmHg 46%
    20:00 +9°C° 0 mm 2 mps 589 mmHg 50%
    21:00 +9°C° 0 mm 3 mps 588 mmHg 54%
    22:00 +9°C° 0 mm 3 mps 588 mmHg 57%
    23:00 +8°C° 0 mm 3 mps 588 mmHg 61%

    Tomorrow, 26 February, Monday

    Time Temperature Precipitation Wind Pressure Humidity
    00:00 +8°C° 0.7 mm 3 mps 588 mmHg 65%
    01:00 +8°C° 0.7 mm 3 mps 588 mmHg 69%
    02:00 +7°C° 0.7 mm 3 mps 587 mmHg 73%
    03:00 +7°C° 1.1 mm 2 mps 587 mmHg 76%
    04:00 +7°C° 1.1 mm 2 mps 587 mmHg 80%
    05:00 +6°C° 1.1 mm 2 mps 587 mmHg 83%
    06:00 +7°C° 0.3 mm 2 mps 587 mmHg 83%
    07:00 +7°C° 0.3 mm 2 mps 587 mmHg 84%
    08:00 +7°C° 0.3 mm 2 mps 587 mmHg 84%
    09:00 +8°C° 0 mm 3 mps 588 mmHg 77%
    10:00 +8°C° 0 mm 4 mps 588 mmHg 69%
    11:00 +9°C° 0 mm 6 mps 589 mmHg 62%
    12:00 +10°C° 0.1 mm 6 mps 589 mmHg 59%
    13:00 +10°C° 0.1 mm 6 mps 588 mmHg 55%
    14:00 +11°C° 0.1 mm 6 mps 588 mmHg 52%
    15:00 +11°C° 0.1 mm 6 mps 588 mmHg 53%
    16:00 +10°C° 0.1 mm 7 mps 587 mmHg 54%
    17:00 +10°C° 0.1 mm 7 mps 587 mmHg 55%
    18:00 +9°C° 0.6 mm 6 mps 587 mmHg 60%
    19:00 +8°C° 0.6 mm 5 mps 587 mmHg 64%
    20:00 +8°C° 0.6 mm 4 mps 587 mmHg 68%
    21:00 +7°C° 0.1 mm 4 mps 587 mmHg 70%
    22:00 +7°C° 0.1 mm 4 mps 587 mmHg 72%
    23:00 +7°C° 0.1 mm 3 mps 586 mmHg 74%

    Day after tomorrow, 27 February, Tuesday

    Time Temperature Precipitation Wind Pressure Humidity
    00:00 +7°C° 0 mm 3 mps 586 mmHg 77%
    01:00 +5°C° 0 mm 3 mps 586 mmHg 80%
    02:00 +5°C° 0 mm 3 mps 585 mmHg 83%
    03:00 +4°C° 0 mm 3 mps 585 mmHg 84%
    04:00 +5°C° 0 mm 2 mps 585 mmHg 86%
    05:00 +4°C° 0 mm 2 mps 584 mmHg 87%
    06:00 +5°C° 0 mm 2 mps 585 mmHg 86%
    07:00 +6°C° 0 mm 1 mps 585 mmHg 85%
    08:00 +6°C° 0 mm 1 mps 586 mmHg 83%
    09:00 +7°C° 0 mm 1 mps 586 mmHg 75%
    10:00 +8°C° 0 mm 2 mps 587 mmHg 67%
    11:00 +9°C° 0 mm 2 mps 588 mmHg 58%
    12:00 +10°C° 0 mm 3 mps 588 mmHg 53%
    13:00 +11°C° 0 mm 3 mps 588 mmHg 48%
    14:00 +12°C° 0 mm 4 mps 588 mmHg 43%
    15:00 +12°C° 0 mm 3 mps 588 mmHg 43%
    16:00 +12°C° 0 mm 3 mps 588 mmHg 42%
    17:00 +12°C° 0 mm 3 mps 587 mmHg 42%
    18:00 +13°C° 0 mm 2 mps 587 mmHg 46%
    19:00 +12°C° 0 mm 2 mps 588 mmHg 50%
    20:00 +11°C° 0 mm 1 mps 588 mmHg 53%
    21:00 +11°C° 0 mm 1 mps 588 mmHg 57%
    22:00 +10°C° 0 mm 1 mps 588 mmHg 60%
    23:00 +9°C° 0 mm 2 mps 588 mmHg 64%

    28 February, Wednesday

    Time Temperature Precipitation Wind Pressure Humidity
    00:00 +9°C° 0 mm 1 mps 587 mmHg 67%
    01:00 +9°C° 0 mm 1 mps 587 mmHg 71%
    02:00 +8°C° 0 mm 1 mps 586 mmHg 74%
    03:00 +8°C° 0 mm 1 mps 586 mmHg 75%
    04:00 +7°C° 0 mm 1 mps 586 mmHg 76%
    05:00 +7°C° 0 mm 1 mps 585 mmHg 78%
    06:00 +7°C° 0 mm 1 mps 586 mmHg 75%
    07:00 +7°C° 0 mm 1 mps 586 mmHg 73%
    08:00 +7°C° 0 mm 2 mps 587 mmHg 71%
    09:00 +9°C° 0 mm 1 mps 587 mmHg 66%
    10:00 +10°C° 0 mm 1 mps 588 mmHg 61%
    11:00 +11°C° 0 mm 1 mps 588 mmHg 55%
    12:00 +12°C° 0.3 mm 2 mps 588 mmHg 54%
    13:00 +12°C° 0.3 mm 2 mps 588 mmHg 52%
    14:00 +13°C° 0.3 mm 2 mps 588 mmHg 50%
    15:00 +12°C° 1 mm 2 mps 587 mmHg 55%
    16:00 +10°C° 1 mm 2 mps 586 mmHg 60%
    17:00 +10°C° 1 mm 3 mps 586 mmHg 65%
    18:00 +9°C° 0.8 mm 2 mps 586 mmHg 68%
    19:00 +9°C° 0.8 mm 2 mps 586 mmHg 71%
    20:00 +10°C° 0.8 mm 1 mps 587 mmHg 74%
    21:00 +9°C° 0.2 mm 1 mps 587 mmHg 76%
    22:00 +9°C° 0.2 mm 1 mps 587 mmHg 77%
    23:00 +9°C° 0.2 mm 1 mps 587 mmHg 79%

    1 March, Thursday

    Time Temperature Precipitation Wind Pressure Humidity
    00:00 +9°C° 0.2 mm 1 mps 586 mmHg 80%
    01:00 +8°C° 0.2 mm 1 mps 586 mmHg 80%
    02:00 +8°C° 0.2 mm 1 mps 585 mmHg 80%
    03:00 +8°C° 0.2 mm 1 mps 585 mmHg 80%
    04:00 +7°C° 0.2 mm 2 mps 585 mmHg 80%
    05:00 +7°C° 0.2 mm 2 mps 585 mmHg 79%
    06:00 +7°C° 0.2 mm 2 mps 585 mmHg 78%
    07:00 +7°C° 0.2 mm 2 mps 585 mmHg 77%
    08:00 +7°C° 0.2 mm 3 mps 585 mmHg 76%
    09:00 +7°C° 1.9 mm 3 mps 585 mmHg 79%
    10:00 +5°C° 1.9 mm 3 mps 585 mmHg 81%
    11:00 +5°C° 1.9 mm 3 mps 585 mmHg 84%
    12:00 +6°C° 1.7 mm 2 mps 585 mmHg 84%
    13:00 +6°C° 1.7 mm 2 mps 584 mmHg 85%
    14:00 +6°C° 1.7 mm 2 mps 584 mmHg 85%
    15:00 +7°C° 0.9 mm 2 mps 584 mmHg 84%
    16:00 +7°C° 0.9 mm 2 mps 584 mmHg 82%
    17:00 +8°C° 0.9 mm 3 mps 584 mmHg 80%
    18:00 +7°C° 0.3 mm 2 mps 584 mmHg 81%
    19:00 +7°C° 0.3 mm 2 mps 584 mmHg 82%
    20:00 +7°C° 0.3 mm 2 mps 584 mmHg 83%
    21:00 +7°C° 0 mm 2 mps 584 mmHg 82%
    22:00 +6°C° 0 mm 2 mps 584 mmHg 82%
    23:00 +6°C° 0 mm 2 mps 584 mmHg 82%

    2 March, Friday

    Time Temperature Precipitation Wind Pressure Humidity
    00:00 +6°C° 0 mm 2 mps 583 mmHg 83%
    01:00 +5°C° 0 mm 2 mps 583 mmHg 84%
    02:00 +6°C° 0 mm 1 mps 582 mmHg 85%
    03:00 +6°C° 0 mm 1 mps 582 mmHg 84%
    04:00 +6°C° 0 mm 1 mps 582 mmHg 84%
    05:00 +5°C° 0 mm 1 mps 582 mmHg 84%
    06:00 +6°C° 0 mm 1 mps 582 mmHg 83%
    07:00 +6°C° 0 mm 1 mps 583 mmHg 82%
    08:00 +7°C° 0 mm 1 mps 583 mmHg 80%
    09:00 +8°C° 0.1 mm 1 mps 584 mmHg 75%
    10:00 +9°C° 0.1 mm 1 mps 584 mmHg 69%
    11:00 +10°C° 0.1 mm 1 mps 585 mmHg 63%
    12:00 +9°C° 0.3 mm 2 mps 585 mmHg 62%
    13:00 +9°C° 0.3 mm 3 mps 584 mmHg 60%
    14:00 +10°C° 0.3 mm 3 mps 584 mmHg 58%
    15:00 +10°C° 0.3 mm 3 mps 584 mmHg 57%
    16:00 +10°C° 0.3 mm 3 mps 584 mmHg 56%
    17:00 +10°C° 0.3 mm 3 mps 583 mmHg 55%
    18:00 +9°C° 0.3 mm 2 mps 583 mmHg 59%
    19:00 +8°C° 0.3 mm 2 mps 584 mmHg 63%
    20:00 +9°C° 0.3 mm 1 mps 584 mmHg 67%
    21:00 +8°C° 0.1 mm 1 mps 584 mmHg 67%
    22:00 +7°C° 0.1 mm 2 mps 584 mmHg 68%
    23:00 +7°C° 0.1 mm 2 mps 583 mmHg 69%
    Show more